Hourly Data Report for March 25, 2016

DAWSON
YUKON TERRITORY

64°03'39.076" N
139°07'36.000" W
370.00 m
2100LRP
71966
WON

Download Data

Hourly Data (March 2016)
Hourly Data Report for March 25, 2016
TIME
LST
Temp Definition
°C
Dew Point Definition
°C
Rel Hum Definition
%
Precip. Amount Definition
mm

Wind Dir Definition
10's deg

Wind Spd Definition
km/h
Visibility Definition
km
Stn Press Definition
kPa
Hmdx Definition


Wind Chill Definition


Weather Definition


00:00 -5.9 -10.4 71 0.0 8 9   96.67   -10 LegendNANA
01:00 -6.5 -10.6 73 0.0 9 10   96.67   -11 LegendNANA
02:00 -7.6 -11.2 75 0.0 8 11   96.70   -13 LegendNANA
03:00 -7.4 -11.2 74 0.0 9 9   96.69   -12 LegendNANA
04:00 -8.6 -11.9 77 0.0 8 11   96.69   -14 LegendNANA
05:00 -8.1 -12.0 73 0.0 9 9   96.68   -13 LegendNANA
06:00 -9.3 -12.8 76 0.0 9 9   96.71   -14 LegendNANA
07:00 -9.6 -12.9 77 0.2 9 10   96.70   -15 LegendNANA
08:00 -10.0 -13.4 76 0.0 9 8   96.72   -14 LegendNANA
09:00 -7.8 -12.3 70 0.0 8 8   96.70   -12 LegendNANA
10:00 -4.6 -11.2 60 0.0 6 8   96.64   -8 LegendNANA
11:00 -1.8 -10.4 52 0.0 2 12   96.57   -6 LegendNANA
12:00 1.1 -9.6 45 0.0 1 11   96.51     LegendNANA
13:00 3.0 -8.5 43 0.0 4 14   96.44     LegendNANA
14:00 4.1 -7.2 43 0.0 8 14   96.40     LegendNANA
15:00 5.4 -6.8 41 0.0 7 15   96.27     LegendNANA
16:00 6.1 -6.8 39 0.0 4 14   96.21     LegendNANA
17:00 6.0 -6.5 40 0.0 5 12   96.18     LegendNANA
18:00 5.4 -5.6 45 0.0 7 15   96.09     LegendNANA
19:00 4.5 -5.5 48 0.3 7 9   96.03     LegendNANA
20:00 1.1 -5.1 63 0.0 26 2   95.99     LegendNANA
21:00 -0.8 -4.1 78 0.2 8 3   95.96   -2 LegendNANA
22:00 -0.9 -4.8 75 0.0 12 3   95.91   -2 LegendNANA
23:00 -1.0 -4.2 79 0.0 11 2   95.86   -2 LegendNANA

Notes on Data Quality.

Legend

  • E = Estimated
  • M = Missing
  • NA = Not Available*
  • [empty] = Indicates an unobserved value
Date modified: